Weather in Kozelsk

Russia / Kaluga Oblast     54°02′05″N   35°46′56″E
temp.,
°C
wind,
m/s
gust,
m/s
humid.,
%
clouds,
%
prec.,
mm/h
press.,
hPa
HPBL,
m
14 april, wed
wed1400:00+12sse2468100 0.0 101982
03:00+10sse310885 0.0 1019231
06:00+9sse379580 0.0 1019157
09:00+13ssw357885 0.0 1019457
12:00+16s4659100 0.0 10181304
15:00+17s355457 0.1 10171560
18:00+16w2261100 0.8 101657
21:00+12nne2275100 0.8 101634
15 april, thu
thu1500:00+10ese2267100 0.0 101625
03:00+10e3463100 0.0 101555
06:00+10ese1160100 0.0 101511
09:00+11ese3764100 0.0 1015213
12:00+15ese4853100 0.1 10141409
15:00+18e61044100 0.3 10132481
18:00+14se3865100 0.4 1014343
21:00+11e31081100 1.4 1014286
16 april, fri
fri1600:00+9ene3488100 0.1 101557
03:00+9ene3891100 0.3 1015167
06:00+8ene3894100 0.0 1016167
09:00+11ene4783100 0.2 1017296
12:00+10se3889100 2.1 1018501
15:00+14e5868100 3.6 10181019
18:00+11ese3884100 2.2 1018410
21:00+9ene3590100 3.1 1019102
17 april, sat
sat1700:00+10ene51292100 0.5 1020482
03:00+9ene5109160 2.1 1021449
06:00+8ene5109386 0.6 1021479
09:00+8ene61088100 0.7 1022615
12:00+13ene6107292 0.1 1021976
15:00+15ene71163100 0.1 10211233
18:00+14ene7126346 0.0 10221206
21:00+10ene6146837 0.0 1022575
18 april, sun
sun1800:00+8ene513655 0.0 1024510
03:00+6ene512704 0.0 1024431
06:00+6ene41172100 0.0 1025433
09:00+7ene5969100 0.0 1025465
12:00+10ene695783 0.0 1026877
15:00+11e5953100 0.0 10261210
18:00+11e255878 0.0 1026336
21:00+7ne38695 0.0 1027140